Погода в Чагыле

Погода в Чагыле : погода сейчас, прогноз погоды и архив. Всё, что Вы хотите узнать о погоде в Чагыле!

Хотите узнать прогноз погоды в Чагыле? Тогда Вам сюда: Погода в Чагыле

Поиск расширенной информации на нашем сайте:

Другие новости

Новости СМИ2

Главная страница сайта

Новости сайта

03.07.2017

Напоминаем, что на нашем специализированном сайте Метеоцентр.Азия вы можете получить высокодетализированные автоматические прогнозы погоды по пунктам России, СНГ и мира в авиационном формате (включающие направление и скорость ветра, видимость, явления погоды, количество и форму облачности, нижнюю и верхнюю границу облачности).

Рекомендуем: ЭлектроКотлы и газовые Котлы: комбинированные котлы цена.

Погода в Чагыле - сегодня

Время (UTC), дата Ветер
(°,м/с) 
Видим.   Явления Облачность Т
(°С)
Тd
(°С)
f(%) Тe
(°С)
Pmin
(гПа)
dP
(гПа)
Po
(мм)
O2
(г/м3)
Тmin Tmax R s Состояние
почвы
18 16.09.17 070 (В) 20000 м    ясно 
+25.2 +8 33 +25  1018.9  0.8  754  277    +32.2       
21 16.09.17 тихо ()   20000 м    ясно 
+21.4 +6.2 37 +21  1019.8  0.7  755  281           
00 17.09.17 тихо ()   20000 м    ясно 
+15.6 +2.1 40 +16  1019.3  -0.7  754  287           
03 17.09.17 тихо ()   20000 м    ясно 
+13.2 +1.3 44 +13  1020  0.6  755  290           
06 17.09.17 тихо ()   20000 м    ясно 
+25.4 +10.2 38 +27  1019.9  0.4  755  277  +13         
09 17.09.17 тихо ()   20000 м    ясно 
+33.2 +13.4 30 +39  1018.7  -0.8  754  268           
12 17.09.17 290 (З) 20000 м    ясно 
+34.3 +12.7 27 +39  1018  -0.6  754  268           
15 17.09.17 290 (З) 20000 м    ясно 
+30 +9.7 28 +31  1017.5  -0.7  753  272    +34.3       
18 17.09.17 тихо ()   20000 м    ясно 
+24.3 +8 35 +24  1018.6  0.8  754  278    +34.3       
21 17.09.17 тихо ()   20000 м    ясно 
+20.7 +8.8 46 +21  1019.2  0.4  754  281           
00 18.09.17 тихо ()   20000 м    ясно 
+15.1 +5.1 51 +15  1019.5  0.1  754  287           
03 18.09.17 тихо ()   20000 м    ясно 
+14.6 +4.5 51 +15  1018.9  -0.6  754  288           
06 18.09.17 тихо ()   20000 м    ясно 
+27.1 +11.1 37 +30  1019  0.6  754  275  +14         
09 18.09.17 070 (В) 20000 м    ясно 
+32.8 +12.6 29 +37  1018.1  -0.6  754  269           
12 18.09.17 070 (В) 20000 м    ясно 
+34 +12.5 27 +39  1016.8  -1.2  753  268           
15 18.09.17 тихо ()   20000 м    ясно 
+31.2 +11.1 29 +34  1016.8  -0.2  753  270    +34.3       
18 18.09.17 110 (В) 20000 м    ясно 
+24.2 +6.7 32 +24  1018.1  754  278    +34.3       
21 18.09.17 тихо ()   20000 м    ясно 
+20.8 +6.1 38 +21  1019.2  0.9  754  281           
00 19.09.17 тихо ()   20000 м    ясно 
+15.8 +3 42 +16  1019.1  -0.3  754  287           
03 19.09.17 тихо ()   20000 м    ясно 
+12.8 +0 41 +13  1018.7  -0.5  754  290           
06 19.09.17 тихо ()   20000 м    ясно 
+28.8 +9.8 31 +30  1019.5  1.5  755  273  +12.6         
09 19.09.17 090 (В) 20000 м    ясно 
+33.2 +13.4 30 +39  1018.7  -0.6  754  268           
12 19.09.17 110 (В) 20000 м    ясно 
+33.5 +11.2 26 +36  1017.1  -1.6  753  268           
15 19.09.17 090 (В) 20000 м    ясно 
+31 +11 29 +33  1017.4  0.2  753  271    +33.7       
18 19.09.17 070 (В) 20000 м    ясно 
+25.2 +8.2 34 +25  1018  0.3  754  277    +33.7       
Время (UTC), дата Ветер
(°,м/с) 
Видим.   Явления Облачность Т
(°С)
Тd
(°С)
f(%) Тe
(°С)
Pmin
(гПа)
dP
(гПа)
Po
(мм)
O2
(г/м3)
Тmin Tmax R s Состояние
почвы

Для получения пояснительной информации подведите курсор к названию столбца.

ПОГОДА в Чагыле - архив

Всё, что Вы хотите узнать о погоде в Чагыле - удобно и подробно!

Выберите нужную дату (начиная с 1 января 2015* года) и нажмите кнопку "Найти".
Будут отображены архивные сводки погоды по пункту Чагыл, начиная с указанной даты.


Отображать данные в формате CSV (для использования в таблицах Excel)


Внимание! Наш архив погоды предназначен исключительно для личного некоммерческого использования в познавательных целях. Если Вам необходимы официальные справки о состоянии погоды (для производственных, юридических, коммерческих и т.п. целей), обращайтесь в органы Росгидромета.

*Примечание: данная дата относится к архиву по метеостанциям СССР (Россия, СНГ, Балтия).
Архив по метеостанциям Зарубежной Европы и Азии (кроме Китая) хранится 10 дней, по другим регионам земного шара (Китай, Африка, Америка, Австралия, Океания) - 1 день.

Чагыл - район местоположения метеостанции


Название, широта, долгота, высота метеостанции:
Чагыл 40.8°ш. 55.3°д. 115 м над ур. моря [Туркменистан]

Дополнительная информация

В oтличие oт бoльшинства пoгoдных сайтoв мы публикуем пoдрoбную метеoинфoрмацию в детальнoм прoфессиoнальнoм фoрмате.

Характеристики температуры и влажнoсти вoздуха измеряются на высoте 2 м в тени вдали oт зданий и деревьев.
Скoрoсть ветра измеряется на высoте 10 м (на урoвне рoста челoвека скoрoсть ветра ниже в 1.5-2 раза). Если метеoстанция нахoдится в гoрoде или в лесу, тo скoрoсть ветра занижена на 2-4 м/с пo сравнению с oткрытым местoм. Скoрoсть ветра над акватoриями крупных рек и oзёр, а также на вершинах хoлмoв на 2-5 м/с выше, чем в oбычных услoвиях.
Атмoсфернoе давление в разных тoчках местнoсти мoжет значительнo oтличаться oт давления на метеoстанции, в зависимoсти oт услoвий рельефа (при пoдъёме на 10 м давление пoнижается примернo на 1 мм рт.ст.).